EW4748 Ridge NY US current weather conditions

sailwx.info

Wind from 201 at 6 knots gusting 15

Air temperature 7.8° C
Dewpoint 3.2° C

Last reported at 2019-Dec-06 20:00 UTC.
Time now 2019-Dec-06 21:00 UTC

Location: N 40°53' W 072°55'.
View on Google Maps.

See reports from other nearby stations

  
Tides and Currents Weather Stations Pressure Air Temp Water Temp Dewpoint Dewpoint Depression Visibility Wind Speed Wind Dir Waves Ship Positions
date/time (UTC)wind fromknots sea level pressurealtimeterstation pressurevisibilityair tempwater tempwave heightnotes
2019-Dec-06 20:00 201 6 gusting 15 7.8
2019-Dec-06 19:55 191 6 gusting 15 7.8
2019-Dec-06 19:50 205 4 gusting 15 7.8
2019-Dec-06 19:45 141 4 gusting 15 7.8
2019-Dec-06 19:40 259 4 gusting 17 7.8
2019-Dec-06 19:35 186 6 gusting 17 7.8
2019-Dec-06 19:30 197 4 gusting 13 7.8
2019-Dec-06 19:25 212 4 gusting 11 7.8
2019-Dec-06 19:20 220 4 gusting 9 7.8
2019-Dec-06 19:15 217 4 gusting 11 7.8
2019-Dec-06 19:10 233 4 gusting 13 7.8
2019-Dec-06 19:05 285 4 gusting 13 7.2
2019-Dec-06 19:00 179 4 gusting 15 7.2
2019-Dec-06 18:55 240 6 gusting 15 7.2
2019-Dec-06 18:50 207 4 gusting 15 7.2
2019-Dec-06 18:45 223 4 gusting 11 7.2
2019-Dec-06 18:40 154 4 gusting 11 7.2
2019-Dec-06 18:35 226 4 gusting 13 7.2
2019-Dec-06 18:30 193 4 gusting 13 6.7
2019-Dec-06 18:25 184 6 gusting 13 6.7
2019-Dec-06 18:20 187 6 gusting 13 6.7
2019-Dec-06 18:15 123 4 gusting 13 6.7
2019-Dec-06 18:10 182 4 gusting 11 6.7
2019-Dec-06 18:05 226 3 gusting 9 6.7
2019-Dec-06 18:00 203 3 gusting 9 6.7
2019-Dec-06 17:55 247 3 gusting 15 6.7
2019-Dec-06 17:50 210 4 gusting 15 6.1
2019-Dec-06 17:45 276 4 gusting 11 6.1
2019-Dec-06 17:40 243 3 gusting 11 6.1
2019-Dec-06 17:35 200 3 gusting 9 6.1
2019-Dec-06 17:30 206 3 gusting 9 6.1
2019-Dec-06 17:25 216 3 gusting 9 6.1
2019-Dec-06 17:20 236 4 gusting 9 6.1
2019-Dec-06 17:15 169 4 gusting 9 6.1
2019-Dec-06 17:10 200 3 gusting 11 6.1
2019-Dec-06 17:05 148 3 gusting 11 6.1
2019-Dec-06 17:00 207 3 gusting 7 6.1
2019-Dec-06 16:55 158 4 gusting 7 6.1
2019-Dec-06 16:50 172 4 gusting 9 6.1
2019-Dec-06 16:45 138 4 gusting 9 6.1
2019-Dec-06 16:40 128 3 gusting 7 6.1
2019-Dec-06 16:35 184 4 gusting 9 5.6
2019-Dec-06 16:30 250 4 gusting 9 5.6
2019-Dec-06 16:25 168 3 gusting 7 5.6
2019-Dec-06 16:20 237 3 gusting 6 5.6
2019-Dec-06 16:15 238 3 gusting 6 5.6
2019-Dec-06 16:10 174 3 gusting 11 5.6
2019-Dec-06 16:05 240 3 gusting 11 5.6
2019-Dec-06 16:00 212 3 gusting 9 5.0
2019-Dec-06 15:55 229 3 gusting 11 5.0
2019-Dec-06 15:50 207 4 gusting 11 5.0
2019-Dec-06 15:45 251 3 gusting 9 5.0
2019-Dec-06 15:40 269 3 gusting 7 5.0
2019-Dec-06 15:35 255 3 gusting 9 5.0
2019-Dec-06 15:30 268 4 gusting 13 4.4
2019-Dec-06 15:25 160 3 gusting 13 4.4
2019-Dec-06 15:20 189 3 gusting 6 4.4
2019-Dec-06 15:15 238 3 gusting 7 4.4
2019-Dec-06 15:10 207 3 gusting 7 3.9
2019-Dec-06 15:05 316 1 gusting 7 3.9
2019-Dec-06 15:00 196 1 gusting 3 3.3
2019-Dec-06 14:55 203 1 gusting 4 3.3
2019-Dec-06 14:50 227 1 gusting 4 3.3
2019-Dec-06 14:45 235 1 gusting 4 3.3
2019-Dec-06 14:40 210 1 gusting 4 3.3
2019-Dec-06 14:35 224 1 gusting 4 2.8
2019-Dec-06 14:30 205 1 gusting 6 2.8
2019-Dec-06 14:25 197 1 gusting 6 2.8
2019-Dec-06 14:20 149 1 gusting 4 2.2
2019-Dec-06 14:15 269 2.2
2019-Dec-06 14:10 174 2.2
2019-Dec-06 14:05 237 1.7
2019-Dec-06 14:00 177 1.7
2019-Dec-06 13:55 233 1.7
2019-Dec-06 13:50 228 1.1
2019-Dec-06 13:45 186 1.1
2019-Dec-06 13:40 162 0.6
2019-Dec-06 13:35 184 0.6
2019-Dec-06 13:30 177 0.6
2019-Dec-06 13:25 238 0.6
2019-Dec-06 13:20 214 0.6
2019-Dec-06 13:15 197 0.6
2019-Dec-06 13:10 187 -0.0
2019-Dec-06 13:05 182 -0.0
2019-Dec-06 13:00 217 -0.0
2019-Dec-06 12:55 158 -0.0
2019-Dec-06 12:50 197 -0.0
2019-Dec-06 12:45 196 -0.0
2019-Dec-06 12:40 196 -0.0
2019-Dec-06 12:35 190 -0.0
2019-Dec-06 12:30 196 -0.0
2019-Dec-06 12:25 224 -0.0
2019-Dec-06 12:20 195 -0.0
2019-Dec-06 12:15 161 -0.0
2019-Dec-06 12:10 179 -0.0
2019-Dec-06 12:05 198 0.6
2019-Dec-06 12:00 182 0.6
2019-Dec-06 11:55 189 0.6
2019-Dec-06 11:50 238 0.6
2019-Dec-06 11:45 238 0.6
2019-Dec-06 11:40 262 0.6
2019-Dec-06 11:35 262 0.6
2019-Dec-06 11:29 274 0.6
2019-Dec-06 11:24 291 0.6
2019-Dec-06 11:19 280 1 gusting 3 0.6
2019-Dec-06 11:14 282 1 gusting 3 0.6
2019-Dec-06 11:09 294 1 gusting 3 0.6
2019-Dec-06 11:04 291 1 gusting 3 1.1
2019-Dec-06 10:59 299 1.1
2019-Dec-06 10:54 291 1 gusting 4 1.1
2019-Dec-06 10:49 307 1 gusting 4 1.1
2019-Dec-06 10:44 298 1 gusting 4 1.1
2019-Dec-06 10:39 266 1 gusting 6 1.1
2019-Dec-06 10:34 345 1 gusting 6 1.1
2019-Dec-06 10:29 255 1 gusting 6 1.1
2019-Dec-06 10:24 312 3 gusting 9 1.1
2019-Dec-06 10:19 311 3 gusting 9 1.1
2019-Dec-06 10:14 296 1 gusting 6 1.1
2019-Dec-06 10:09 271 1 gusting 7 1.1
2019-Dec-06 10:04 307 3 gusting 13 1.1
2019-Dec-06 09:59 307 3 gusting 13 1.1
2019-Dec-06 09:54 297 1 gusting 4 1.1
2019-Dec-06 09:49 303 3 gusting 6 1.1
2019-Dec-06 09:44 300 3 gusting 6 1.1
2019-Dec-06 09:39 318 1 gusting 9 1.1
2019-Dec-06 09:34 314 3 gusting 9 1.1
2019-Dec-06 09:29 295 3 gusting 9 1.1
2019-Dec-06 09:24 301 3 gusting 9 1.1
2019-Dec-06 09:19 295 3 gusting 7 1.1
2019-Dec-06 09:14 312 3 gusting 7 1.1
2019-Dec-06 09:09 324 3 gusting 9 1.1
2019-Dec-06 09:04 271 4 gusting 9 1.1
2019-Dec-06 08:59 304 3 gusting 11 1.1
2019-Dec-06 08:54 297 3 gusting 11 1.1
2019-Dec-06 08:49 282 3 gusting 11 1.1
2019-Dec-06 08:44 305 3 gusting 7 1.1
2019-Dec-06 08:39 273 3 gusting 9 1.1
2019-Dec-06 08:34 321 3 gusting 9 1.1
2019-Dec-06 08:29 332 3 gusting 7 1.1
2019-Dec-06 08:24 302 3 gusting 7 1.1
2019-Dec-06 08:19 294 3 gusting 6 1.1
2019-Dec-06 08:14 304 4 gusting 13 1.1
2019-Dec-06 08:09 282 4 gusting 13 1.1
2019-Dec-06 08:04 281 4 gusting 13 1.1
2019-Dec-06 07:59 274 4 gusting 11 1.1
2019-Dec-06 07:54 289 6 gusting 15 1.1
2019-Dec-06 07:49 330 6 gusting 15 1.1
2019-Dec-06 07:44 320 6 gusting 15 1.1
2019-Dec-06 07:39 278 6 gusting 13 1.1
2019-Dec-06 07:34 301 7 gusting 19 1.1
2019-Dec-06 07:29 300 7 gusting 19 1.1
2019-Dec-06 07:24 328 6 gusting 17 1.1
2019-Dec-06 07:19 287 4 gusting 17 1.1
2019-Dec-06 07:14 330 4 gusting 11 1.1
2019-Dec-06 07:09 272 3 gusting 7 1.1
2019-Dec-06 07:04 311 3 gusting 7 1.1
2019-Dec-06 06:59 315 3 gusting 7 1.1
2019-Dec-06 06:54 321 3 gusting 7 1.1
2019-Dec-06 06:49 302 3 gusting 9 1.1
2019-Dec-06 06:44 307 3 gusting 9 1.1
2019-Dec-06 06:39 298 3 gusting 9 1.1
2019-Dec-06 06:34 294 3 gusting 9 1.1
2019-Dec-06 06:29 293 3 gusting 7 1.1
2019-Dec-06 06:24 311 3 gusting 6 1.1
2019-Dec-06 06:19 309 4 gusting 13 1.1
2019-Dec-06 06:14 318 4 gusting 13 1.1
2019-Dec-06 06:09 278 3 gusting 11 1.1
2019-Dec-06 06:04 316 4 gusting 11 1.1
2019-Dec-06 05:59 312 4 gusting 11 1.1
2019-Dec-06 05:54 301 4 gusting 11 1.7
2019-Dec-06 05:49 321 4 gusting 11 1.7
2019-Dec-06 05:44 272 4 gusting 9 1.7
2019-Dec-06 05:39 276 3 gusting 9 1.7
2019-Dec-06 05:34 283 3 gusting 9 1.7
2019-Dec-06 05:29 290 4 gusting 15 1.7
2019-Dec-06 05:24 308 4 gusting 15 1.7
2019-Dec-06 05:19 307 6 gusting 13 1.7
2019-Dec-06 05:14 335 4 gusting 13 1.7
2019-Dec-06 05:09 301 4 gusting 13 1.7
2019-Dec-06 05:04 296 6 gusting 13 1.7
2019-Dec-06 04:59 307 6 gusting 13 1.7
2019-Dec-06 04:54 294 6 gusting 15 1.7
2019-Dec-06 04:49 285 4 gusting 15 1.7
2019-Dec-06 04:44 319 4 gusting 13 2.2
2019-Dec-06 04:39 320 6 gusting 13 2.2
2019-Dec-06 04:34 308 6 gusting 13 2.2
2019-Dec-06 04:29 321 4 gusting 13 2.2
2019-Dec-06 04:24 281 6 gusting 13 2.2
2019-Dec-06 04:19 274 6 gusting 13 2.2
2019-Dec-06 04:14 306 6 gusting 19 2.2
2019-Dec-06 04:09 314 6 gusting 19 2.2
2019-Dec-06 04:04 248 4 gusting 17 2.2
2019-Dec-06 03:59 309 6 gusting 17 2.2
2019-Dec-06 03:54 300 6 gusting 19 2.2
2019-Dec-06 03:49 293 7 gusting 19 2.2
2019-Dec-06 03:44 296 7 gusting 19 2.2
2019-Dec-06 03:39 315 6 gusting 19 2.2
2019-Dec-06 03:34 304 7 gusting 19 2.2
2019-Dec-06 03:29 266 7 gusting 17 2.2
2019-Dec-06 03:24 301 6 gusting 21 2.2
2019-Dec-06 03:19 308 7 gusting 21 2.2
2019-Dec-06 03:14 285 6 gusting 19 2.2
2019-Dec-06 03:09 297 6 gusting 13 2.2
2019-Dec-06 03:04 265 7 gusting 19 2.2
2019-Dec-06 02:59 277 7 gusting 19 2.2
2019-Dec-06 02:54 332 7 gusting 17 2.2
2019-Dec-06 02:49 313 7 gusting 15 2.2
2019-Dec-06 02:44 264 6 gusting 15 2.2
2019-Dec-06 02:39 309 6 gusting 13 2.2
2019-Dec-06 02:34 339 6 gusting 13 2.8
2019-Dec-06 02:29 271 6 gusting 15 2.8
2019-Dec-06 02:24 300 6 gusting 17 2.8
2019-Dec-06 02:19 305 7 gusting 17 2.8
2019-Dec-06 02:14 303 6 gusting 17 2.8
2019-Dec-06 02:09 295 6 gusting 15 2.8
2019-Dec-06 02:04 298 6 gusting 13 2.8
2019-Dec-06 01:59 264 6 gusting 19 2.8
2019-Dec-06 01:54 291 7 gusting 21 2.8
2019-Dec-06 01:49 304 7 gusting 21 2.8
2019-Dec-06 01:44 289 9 gusting 25 2.8
2019-Dec-06 01:39 301 7 gusting 25 2.8
2019-Dec-06 01:34 309 7 gusting 17 2.8
2019-Dec-06 01:29 281 7 gusting 19 2.8
2019-Dec-06 01:24 317 6 gusting 19 2.8
2019-Dec-06 01:19 298 4 gusting 13 2.8
2019-Dec-06 01:14 309 6 gusting 19 2.8
2019-Dec-06 01:09 269 7 gusting 19 2.8
2019-Dec-06 01:04 300 7 gusting 19 3.3
2019-Dec-06 00:59 297 7 gusting 19 3.3
2019-Dec-06 00:54 288 7 gusting 19 3.3
2019-Dec-06 00:49 285 9 gusting 19 3.3
2019-Dec-06 00:44 309 7 gusting 19 2.8
2019-Dec-06 00:39 297 6 gusting 19 2.8
2019-Dec-06 00:34 288 6 gusting 13 2.8
2019-Dec-06 00:29 283 6 gusting 26 3.3
2019-Dec-06 00:24 304 9 gusting 26 3.3
2019-Dec-06 00:19 292 9 gusting 19 3.3
2019-Dec-06 00:14 304 7 gusting 27 2.8
2019-Dec-06 00:09 269 6 gusting 27 2.8
2019-Dec-06 00:04 293 4 gusting 15 2.8
2019-Dec-05 23:59 278 6 gusting 15 2.8
2019-Dec-05 23:54 290 4 gusting 11 2.8
2019-Dec-05 23:49 282 4 gusting 9 2.8
2019-Dec-05 23:44 274 6 gusting 15 2.8
2019-Dec-05 23:39 281 6 gusting 15 2.8
2019-Dec-05 23:33 304 4 gusting 15 3.3
2019-Dec-05 23:28 304 4 gusting 11 3.3
2019-Dec-05 23:23 319 7 gusting 19 3.3
2019-Dec-05 23:18 298 7 gusting 19 3.3
2019-Dec-05 23:13 313 7 gusting 17 3.3
2019-Dec-05 23:08 281 9 gusting 19 3.3
2019-Dec-05 23:03 292 11 gusting 23 3.3
2019-Dec-05 22:58 275 13 gusting 23 3.3
2019-Dec-05 22:53 309 9 gusting 19 3.3
2019-Dec-05 22:48 297 9 gusting 19 3.3
2019-Dec-05 22:43 307 9 gusting 19 3.3
2019-Dec-05 22:38 300 9 gusting 17 3.3
2019-Dec-05 22:33 277 9 gusting 17 3.3
2019-Dec-05 22:28 276 7 gusting 15 3.3
2019-Dec-05 22:23 317 6 gusting 17 3.3
2019-Dec-05 22:18 276 4 gusting 17 3.3
2019-Dec-05 22:13 294 4 gusting 11 3.3
2019-Dec-05 22:08 313 7 gusting 19 3.3
2019-Dec-05 22:03 323 9 gusting 23 3.3
2019-Dec-05 21:58 330 11 gusting 23 3.3
2019-Dec-05 21:53 285 11 gusting 27 3.9
2019-Dec-05 21:48 298 9 gusting 27 3.9
2019-Dec-05 21:43 321 6 gusting 19 3.9
2019-Dec-05 21:38 294 6 gusting 13 3.9
2019-Dec-05 21:33 297 7 gusting 15 3.9
2019-Dec-05 21:28 334 7 gusting 15 3.9
2019-Dec-05 21:18 271 6 gusting 17 3.9
2019-Dec-05 21:13 274 7 gusting 17 3.9
2019-Dec-05 21:08 308 7 gusting 19 3.9
2019-Dec-05 21:03 332 7 gusting 19 3.9
2019-Dec-05 20:58 319 7 gusting 15 4.4
2019-Dec-05 20:53 291 6 gusting 15 4.4
2019-Dec-05 20:48 256 6 gusting 15 4.4
2019-Dec-05 20:28 297 6 gusting 19 4.4
2019-Dec-05 20:23 307 6 gusting 15 4.4
2019-Dec-05 20:18 293 6 gusting 13 4.4
2019-Dec-05 20:13 298 4 gusting 13 4.4
2019-Dec-05 20:08 300 6 gusting 13 4.4
2019-Dec-05 20:03 309 7 gusting 21 4.4
2019-Dec-05 19:58 313 7 gusting 21 5.0
2019-Dec-05 19:53 271 7 gusting 19 5.0
2019-Dec-05 19:48 314 7 gusting 19 5.0
2019-Dec-05 19:43 288 7 gusting 19 5.0
2019-Dec-05 19:38 303 7 gusting 19 5.0
2019-Dec-05 19:33 298 9 gusting 25 5.0
2019-Dec-05 19:28 287 9 gusting 25 5.0
2019-Dec-05 19:23 294 9 gusting 17 5.6
2019-Dec-05 19:18 329 7 gusting 17 5.6
2019-Dec-05 19:13 271 7 gusting 19 5.6
2019-Dec-05 19:08 321 9 gusting 19 5.6
2019-Dec-05 19:03 314 11 gusting 21 5.0
2019-Dec-05 18:58 291 9 gusting 21 5.0
2019-Dec-05 18:53 273 7 gusting 21 5.6
2019-Dec-05 18:48 299 9 gusting 21 5.0
2019-Dec-05 18:43 300 11 gusting 19 5.0
2019-Dec-05 18:38 314 9 gusting 19 5.0
2019-Dec-05 18:33 319 7 gusting 19 5.0
2019-Dec-05 18:28 345 6 gusting 19 5.0
2019-Dec-05 18:23 013 7 gusting 19 5.0
2019-Dec-05 18:18 318 9 gusting 19 5.0
2019-Dec-05 18:13 270 9 gusting 25 5.0
2019-Dec-05 18:08 323 11 gusting 25 5.0
2019-Dec-05 18:03 316 11 gusting 19 5.0
2019-Dec-05 17:58 288 9 gusting 21 5.0
2019-Dec-05 17:53 262 9 gusting 21 5.0
2019-Dec-05 17:48 298 11 gusting 21 5.0
2019-Dec-05 17:43 292 11 gusting 26 5.0
2019-Dec-05 17:38 268 9 gusting 26 5.0
2019-Dec-05 17:33 299 9 gusting 19 5.0
2019-Dec-05 17:28 300 11 gusting 21 5.0
2019-Dec-05 17:23 295 11 gusting 26 5.0
2019-Dec-05 17:18 300 9 gusting 26 5.0
2019-Dec-05 17:13 282 11 gusting 21 5.0
2019-Dec-05 17:08 280 13 gusting 26 5.0
2019-Dec-05 17:03 301 13 gusting 26 5.0
2019-Dec-05 16:58 275 9 gusting 19 5.6
2019-Dec-05 16:53 295 9 gusting 26 5.6
2019-Dec-05 16:48 304 9 gusting 26 5.6
2019-Dec-05 16:43 296 7 gusting 19 5.0
2019-Dec-05 16:38 314 9 gusting 19 5.0
2019-Dec-05 16:33 269 11 gusting 19 5.0
2019-Dec-05 16:28 312 11 gusting 19 5.6
2019-Dec-05 16:23 329 11 gusting 19 5.6
2019-Dec-05 16:18 302 9 gusting 19 5.6
2019-Dec-05 16:13 273 11 gusting 25 5.6
2019-Dec-05 16:08 300 11 gusting 25 5.6
2019-Dec-05 16:03 301 11 gusting 19 5.0
2019-Dec-05 15:58 319 7 gusting 19 5.0
2019-Dec-05 15:53 283 7 gusting 23 5.0
2019-Dec-05 15:48 335 9 gusting 23 5.0
2019-Dec-05 15:43 279 9 gusting 19 5.0
2019-Dec-05 15:38 300 7 gusting 19 5.0
2019-Dec-05 15:33 299 7 gusting 19 5.0
2019-Dec-05 15:28 292 9 gusting 19 5.0
2019-Dec-05 15:23 321 9 gusting 19 5.0
2019-Dec-05 15:18 281 7 gusting 31 5.0
2019-Dec-05 15:13 293 7 gusting 31 5.0
2019-Dec-05 15:08 296 7 gusting 19 5.0
2019-Dec-05 15:03 307 7 gusting 23 5.0
2019-Dec-05 14:58 288 7 gusting 23 5.0
2019-Dec-05 14:53 293 7 gusting 19 5.0
2019-Dec-05 14:48 311 7 gusting 17 5.0
2019-Dec-05 14:43 302 7 gusting 17 5.0
2019-Dec-05 14:38 299 7 gusting 19 4.4
2019-Dec-05 14:33 330 7 gusting 19 4.4
2019-Dec-05 14:28 311 6 gusting 13 4.4
2019-Dec-05 14:23 309 6 gusting 13 4.4
2019-Dec-05 14:18 299 7 gusting 13 4.4
2019-Dec-05 14:13 318 7 gusting 13 4.4
2019-Dec-05 14:08 309 6 gusting 19 4.4
2019-Dec-05 14:03 274 6 gusting 19 4.4
2019-Dec-05 13:58 293 6 gusting 15 3.9
2019-Dec-05 13:53 305 7 gusting 19 3.9
2019-Dec-05 13:48 316 6 gusting 19 3.9
2019-Dec-05 13:43 255 6 gusting 13 3.9
2019-Dec-05 13:38 274 4 gusting 13 3.3
2019-Dec-05 13:33 303 4 gusting 13 3.3
2019-Dec-05 13:28 271 4 gusting 11 3.3
2019-Dec-05 13:23 269 4 gusting 11 3.3
2019-Dec-05 13:18 284 3 gusting 11 3.3
2019-Dec-05 13:13 305 3 gusting 7 3.3
2019-Dec-05 13:08 269 3 gusting 7 2.8
2019-Dec-05 13:03 299 3 gusting 11 2.8
2019-Dec-05 12:58 296 1 gusting 11 2.8
2019-Dec-05 12:53 318 3 gusting 11 2.8
2019-Dec-05 12:48 311 3 gusting 11 2.8
2019-Dec-05 12:43 298 3 gusting 9 2.8
2019-Dec-05 12:38 297 3 gusting 9 2.8
2019-Dec-05 12:33 320 3 gusting 7 2.8
2019-Dec-05 12:28 302 3 gusting 7 2.8
2019-Dec-05 12:23 300 1 gusting 4 2.8
2019-Dec-05 12:18 293 1 gusting 4 2.8
2019-Dec-05 12:13 309 1 gusting 4 2.8
2019-Dec-05 12:08 307 3 gusting 6 2.8
2019-Dec-05 12:03 311 3 gusting 6 2.8
2019-Dec-05 11:58 302 3 gusting 9 2.8
2019-Dec-05 11:53 315 3 gusting 11 2.8
2019-Dec-05 11:48 278 4 gusting 11 2.8
2019-Dec-05 11:43 333 3 gusting 7 2.8
2019-Dec-05 11:38 314 3 gusting 7 2.8
2019-Dec-05 11:33 288 3 gusting 6 2.2
2019-Dec-05 11:28 277 3 gusting 9 2.2
2019-Dec-05 11:23 295 3 gusting 9 2.2
2019-Dec-05 11:18 296 3 gusting 7 1.7
2019-Dec-05 11:13 272 1 gusting 4 1.7
2019-Dec-05 11:08 288 1 gusting 4 1.7
2019-Dec-05 11:03 311 1 gusting 6 1.7
2019-Dec-05 10:58 304 1 gusting 6 1.1
2019-Dec-05 10:53 301 1 gusting 4 1.1
2019-Dec-05 10:48 297 1 gusting 4 1.1
2019-Dec-05 10:43 302 1 gusting 3 0.6
2019-Dec-05 10:38 293 1 gusting 3 0.6
2019-Dec-05 10:33 284 0.6
2019-Dec-05 10:28 312 0.6
2019-Dec-05 10:23 286 0.6
2019-Dec-05 10:18 289 1 gusting 3 0.6
2019-Dec-05 10:13 279 0.6
2019-Dec-05 10:08 312 0.6
2019-Dec-05 10:03 257 0.6
2019-Dec-05 09:58 272 0.6
2019-Dec-05 09:53 290 1.1
2019-Dec-05 09:48 270 1.1
2019-Dec-05 09:43 290 1.1
2019-Dec-05 09:38 300 1.1
2019-Dec-05 09:33 278 1.1
2019-Dec-05 09:28 296 1.1
2019-Dec-05 09:23 288 1.1
2019-Dec-05 09:18 269 1.1
2019-Dec-05 09:13 278 1.1
2019-Dec-05 09:08 298 1.1
2019-Dec-05 09:03 282 1.1
2019-Dec-05 08:58 288 1.1
2019-Dec-05 08:53 274 1.1
2019-Dec-05 08:48 279 1.1
2019-Dec-05 08:43 276 1.1
2019-Dec-05 08:38 287 1.1
2019-Dec-05 08:33 281 1.1
2019-Dec-05 08:28 307 1.1
2019-Dec-05 08:22 291 1.1
2019-Dec-05 08:17 278 1.1
2019-Dec-05 08:12 286 1.7
2019-Dec-05 08:07 297 1.7
2019-Dec-05 08:02 294 1.7
2019-Dec-05 07:57 308 1.7
2019-Dec-05 07:52 295 1 gusting 3 1.7
2019-Dec-05 07:47 293 1 gusting 3 1.7
2019-Dec-05 07:42 285 1 gusting 3 1.7
2019-Dec-05 07:37 262 1.7
2019-Dec-05 07:32 272 1.7
2019-Dec-05 07:27 255 1 gusting 4 1.7
2019-Dec-05 07:22 275 1 gusting 3 1.1
2019-Dec-05 07:17 259 1 gusting 3 1.1
2019-Dec-05 07:12 274 1.1
2019-Dec-05 07:07 285 1.1
2019-Dec-05 07:02 295 1.1
2019-Dec-05 06:57 271 1.1
2019-Dec-05 06:52 264 1.1
2019-Dec-05 06:47 271 1.1
2019-Dec-05 06:42 276 1.1
2019-Dec-05 06:37 294 1.1
2019-Dec-05 06:32 305 1.1
2019-Dec-05 06:27 305 1.7
2019-Dec-05 06:22 304 1.7
2019-Dec-05 06:17 304 1.7
2019-Dec-05 06:12 304 1.7
2019-Dec-05 06:07 304 1.7
2019-Dec-05 06:02 307 1.7
2019-Dec-05 05:57 308 1.7
2019-Dec-05 05:52 308 1.7
2019-Dec-05 05:47 270 1.7
2019-Dec-05 05:42 266 1.7
2019-Dec-05 05:37 291 1.7
2019-Dec-05 05:32 293 1.7
2019-Dec-05 05:27 278 1.7
2019-Dec-05 05:22 271 1.7
2019-Dec-05 05:17 272 1.7
2019-Dec-05 05:12 278 1.7
2019-Dec-05 05:07 262 1.7
2019-Dec-05 05:02 262 1.7
2019-Dec-05 04:57 266 1.7
2019-Dec-05 04:52 269 1.7
2019-Dec-05 04:47 269 1.7
2019-Dec-05 04:42 269 1.7
2019-Dec-05 04:37 269 1.7
2019-Dec-05 04:32 269 1.7
2019-Dec-05 04:27 307 1.7
2019-Dec-05 04:22 271 1.7
2019-Dec-05 04:17 287 1.7
2019-Dec-05 04:12 273 1.7
2019-Dec-05 04:07 290 1.7
2019-Dec-05 04:02 278 1.7
2019-Dec-05 03:57 266 1.1
2019-Dec-05 03:52 275 1.1
2019-Dec-05 03:47 284 1.1
2019-Dec-05 03:42 278 1.1
2019-Dec-05 03:37 278 1.1
2019-Dec-05 03:32 270 1.7
2019-Dec-05 03:27 276 1.7
2019-Dec-05 03:22 276 1.7
2019-Dec-05 03:17 276 1.7
2019-Dec-05 03:12 276 1.7
2019-Dec-05 03:07 277 1.7
2019-Dec-05 03:02 268 1 gusting 1 1.7
2019-Dec-05 02:57 273 1.7
2019-Dec-05 02:52 269 1.7
2019-Dec-05 02:47 274 1.7
2019-Dec-05 02:42 264 1.7
2019-Dec-05 02:37 277 1.7
2019-Dec-05 02:32 276 1.7
2019-Dec-05 02:27 280 1.7
2019-Dec-05 02:22 290 1.7
2019-Dec-05 02:17 285 1.7
2019-Dec-05 02:12 288 1.7
2019-Dec-05 02:07 266 1.1
2019-Dec-05 02:02 269 1.1
2019-Dec-05 01:57 271 1.1
2019-Dec-05 01:52 270 1.1
2019-Dec-05 01:47 273 1.1
2019-Dec-05 01:41 262 1.1
2019-Dec-05 01:37 262 1.1
2019-Dec-05 01:32 266 1.1
2019-Dec-05 01:26 267 1.1
2019-Dec-05 01:22 263 1.1
2019-Dec-05 01:17 262 0.6
2019-Dec-05 01:11 262 0.6
2019-Dec-05 01:06 251 0.6
2019-Dec-05 01:01 251 0.6
2019-Dec-05 00:56 251 0.6
2019-Dec-05 00:51 300 0.6
2019-Dec-05 00:46 300 0.6
2019-Dec-05 00:41 300 0.6
2019-Dec-05 00:36 300 0.6
2019-Dec-05 00:31 252 0.6
2019-Dec-05 00:26 252 0.6
2019-Dec-05 00:21 258 -0.0
2019-Dec-05 00:16 259 -0.0
2019-Dec-05 00:11 259 -0.0
2019-Dec-05 00:06 259 0.6
2019-Dec-05 00:01 259 0.6
2019-Dec-04 23:56 259 1.1
2019-Dec-04 23:51 259 1.1
2019-Dec-04 23:46 259 1.7
2019-Dec-04 23:41 259 1.7
2019-Dec-04 23:36 259 1.7
2019-Dec-04 23:31 259 1.7
2019-Dec-04 23:26 259 2.2
2019-Dec-04 23:21 259 2.2
2019-Dec-04 23:16 258 2.2
2019-Dec-04 23:11 249 2.2
2019-Dec-04 23:06 257 2.2
2019-Dec-04 23:01 235 2.8
2019-Dec-04 22:56 262 2.8
2019-Dec-04 22:51 256 2.8
2019-Dec-04 22:46 266 2.8
2019-Dec-04 22:41 272 2.8
2019-Dec-04 22:36 264 2.8
2019-Dec-04 22:31 267 2.8
2019-Dec-04 22:26 269 2.8
2019-Dec-04 22:21 269 2.8
2019-Dec-04 22:16 255 2.8
2019-Dec-04 22:11 266 2.8
2019-Dec-04 22:06 262 2.8
2019-Dec-04 22:01 251 2.8
2019-Dec-04 21:56 266 2.8
2019-Dec-04 21:51 265 2.8
2019-Dec-04 21:46 269 2.8
2019-Dec-04 21:41 270 2.8
2019-Dec-04 21:36 264 1 gusting 3 2.8
2019-Dec-04 21:31 234 2.8
2019-Dec-04 21:26 218 2.8
2019-Dec-04 21:21 257 3.3
2019-Dec-04 21:16 262 3.3
2019-Dec-04 21:11 257 1 gusting 4 3.3
2019-Dec-04 21:06 271 1 gusting 4 3.3
2019-Dec-04 21:01 262 1 gusting 3 3.3